#timestamp,LO_Frequency,Hit,StdDev 
1596510015.9,286046998.8,P
1596510035.7,286046998.4,N
1596510055.5,286046998.8,N
1596510075.4,286046998.5,N
1596510095.2,286046998.9,N
1596510115.1,286046998.1,N
1596510116.0,286046998.1,N
1596510135.8,286047001.0,N
1596510155.6,286047002.4,N
1596510175.5,286047002.7,N
1596510195.3,286047000.1,N
1596510215.2,286047000.7,N
1596510235.9,286046998.1,N
1596510255.7,286046998.2,N
1596510275.6,286046998.2,N
1596510295.4,286046998.4,N
1596510315.2,286046998.6,N
1596510335.1,286047000.3,N
1596510336.0,286047000.3,N
1596510355.8,286046999.4,N
1596510375.7,286046999.3,N
1596510395.5,286046998.3,N
1596510415.3,286046999.1,N
1596510435.2,286046998.1,N
1596510455.0,286047001.0,N
1596510455.9,286047001.0,N
1596510475.8,286047001.0,N
1596510495.6,286047001.0,N
1596510515.4,286047000.4,N
1596510535.3,286047000.0,N
1596510555.1,286047001.7,N
1596510575.8,286047000.9,N
1596510595.7,286047001.2,N
1596510615.5,286047000.4,N
1596510635.4,286047000.4,N
1596510655.2,286047000.5,N
1596510675.0,286047002.3,N
1596510675.9,286047002.3,N
1596510695.8,286047000.8,N
1596510715.6,286047000.7,N
1596510735.5,286047000.2,N
1596510755.3,286047000.1,N
1596510775.1,286047000.4,N
1596510795.9,286047000.3,N
1596510815.7,286046998.1,N
1596510835.6,286046998.4,N
1596510855.4,286047001.2,N
1596510875.2,286047001.0,N
1596510895.1,286047000.9,N
1596510896.0,286047000.9,N
1596510915.8,286047000.1,N
1596510935.7,286047000.0,N
1596510955.5,286047002.3,N
1596510975.3,286047002.4,N
1596510995.2,286047001.9,N
1596511015.0,286047002.2,N
1596511015.9,286047002.2,N
1596511035.8,286046999.9,N
1596511055.6,286047002.4,N
1596511075.4,286047002.7,N
1596511095.3,286047000.5,N
1596511115.1,286047000.0,N
1596511135.9,286047002.4,N
1596511155.7,286047000.3,N
1596511175.5,286047001.9,N
1596511195.4,286047002.7,N
1596511215.2,286047001.4,N
1596511235.0,286047002.2,N
1596511235.9,286047002.2,N
1596511255.8,286047000.1,N
1596511275.6,286047001.4,N
1596511295.5,286047001.5,N
1596511315.3,286047001.3,N
1596511335.1,286047002.0,N
1596511355.9,286047002.0,N
1596511375.7,286047002.5,N
1596511395.6,286047004.4,Y
1596511415.4,286047002.4,P
1596511435.2,286047002.8,P
1596511455.1,286047002.8,P
1596511456.0,286047002.8,Y
1596511475.8,286046998.6,P
1596511495.6,286046998.1,N
1596511515.5,286047000.9,N
1596511535.3,286046998.4,N
1596511555.2,286046998.6,N
1596511575.0,286046998.4,N
1596511575.9,286046998.4,N
1596511595.8,286046999.6,N
1596511615.6,286046998.5,N
1596511635.4,286046998.8,N
1596511655.3,286046998.4,N
1596511675.1,286046998.9,N
1596511695.9,286046999.1,N
1596511715.7,286046996.6,Y
1596511735.5,286046999.0,P
1596511755.4,286047000.8,P
1596511775.2,286046998.3,N
1596511795.1,286046998.2,N
1596511796.0,286046998.2,N
1596511815.8,286047000.7,N
1596511835.7,286046999.4,N
1596511855.5,286046996.5,Y
1596511875.3,286046999.2,P
1596511895.2,286046999.6,P
1596511915.0,286046998.6,P
1596511915.9,286046998.6,Y
1596511935.8,286047000.3,P
1596511955.6,286047000.1,N
1596511975.4,286047000.4,N
1596511995.3,286047002.4,Y
1596512015.1,286047002.7,P
1596512035.9,286047002.1,N
1596512055.7,286047002.8,N
1596512075.5,286047002.4,N
1596512095.4,286047001.5,N
1596512115.2,286047002.2,N
1596512135.1,286047002.0,N
1596512136.0,286047002.0,N
1596512155.8,286047001.8,N
1596512175.7,286047002.1,N
1596512195.5,286047002.1,N
1596512215.3,286047001.9,N
1596512235.2,286047003.7,Y
1596512255.0,286047000.7,P
1596512255.9,286047000.7,N
1596512275.8,286046999.3,N
1596512295.6,286046998.8,N
1596512315.4,286046998.9,N
1596512335.3,286046999.1,N
1596512355.1,286047000.7,N
1596512375.8,286047000.8,N
1596512395.7,286047001.1,N
1596512415.5,286047001.0,N
1596512435.4,286046999.9,N
1596512455.2,286047000.9,N
1596512475.1,286047000.8,N
1596512476.0,286047000.8,N
1596512495.8,286047000.6,N
1596512515.6,286047001.1,N
1596512535.5,286047001.1,N
1596512555.3,286046999.9,N
1596512575.2,286047000.2,N
1596512595.9,286046999.9,N
1596512615.7,286047000.1,N
1596512635.6,286047000.6,N
1596512655.4,286047002.3,N
1596512675.2,286047001.7,N
1596512695.1,286047002.3,N
1596512696.0,286047002.3,N
1596512715.8,286047002.8,N
1596512735.7,286047001.3,N
1596512755.5,286047002.8,N
1596512775.3,286047002.2,N
1596512795.2,286047004.1,Y
1596512815.0,286047000.6,P
1596512815.9,286047000.6,P
1596512835.8,286047000.1,N
1596512855.6,286047000.7,N
1596512875.4,286047000.8,Y
1596512895.3,286047000.6,P
1596512915.1,286047000.9,P
1596512935.9,286047000.4,N
1596512955.7,286047001.1,Y
1596512975.5,286046998.2,P
1596512995.4,286046998.1,N
1596513015.2,286046998.3,N
1596513035.0,286047000.1,N
1596513036.0,286047000.1,N
1596513055.8,286047000.6,N
1596513075.6,286046999.7,N
1596513095.5,286047001.2,N
1596513115.3,286046998.6,N
1596513135.1,286046998.7,N
1596513155.9,286046998.8,N
1596513175.7,286046999.3,N
1596513225.6,286046998.2,E
1596513235.5,286047000.6,N
1596513255.3,286046998.7,P
1596513275.2,286046998.7,N
1596513295.0,286046998.9,N
1596513295.9,286046998.9,N
1596513315.8,286046999.4,N
1596513335.6,286046998.4,N
1596513355.4,286046999.1,N
1596513375.3,286047001.1,N
1596513395.1,286047001.2,N
1596513415.9,286047000.2,N
1596513435.7,286047000.2,N
1596513455.5,286046999.8,N
1596513475.4,286046998.6,N
1596513495.2,286046998.4,N
1596513515.0,286047000.6,N
1596513516.0,286047000.6,N
1596513535.8,286046998.4,N
1596513555.6,286046998.7,N
1596513575.5,286046998.4,N
1596513595.3,286046999.4,N
